When you browse on this site, cookies collect data to enhance your experience and personalize the content and advertising you see.
Visit our Privacy Policy to learn more. By continuing to use the site, you agree to this use of cookies and data.
  • In Germany
  • List of Countries
  • For 7 days
  • Water Temperature
  • Satellite Maps
  • Weather Map
  • Weather Widgets
  • user-avatar
    Login

    Hourly Weather Bunako-Sokolovec

    Today, 18 November, Sunday

    Time Temperature Precipitation Wind Pressure Humidity
    00:00 -5°C° 0 mm 2 mps 761 mmHg 76%
    01:00 -5°C° 0 mm 2 mps 760 mmHg 76%
    02:00 -6°C° 0 mm 2 mps 760 mmHg 76%
    03:00 -6°C° 0 mm 2 mps 760 mmHg 75%
    04:00 -6°C° 0 mm 2 mps 759 mmHg 76%
    05:00 -6°C° 0 mm 2 mps 759 mmHg 76%
    06:00 -3°C° 0 mm 1 mps 759 mmHg 77%
    07:00 -3°C° 0 mm 1 mps 759 mmHg 77%
    08:00 -3°C° 0 mm 1 mps 759 mmHg 77%
    09:00 -2°C° 0 mm 1 mps 758 mmHg 76%
    10:00 -2°C° 0 mm 1 mps 758 mmHg 75%
    11:00 -1°C° 0 mm 1 mps 758 mmHg 74%
    12:00 0°C° 0 mm 1 mps 758 mmHg 72%
    13:00 0°C° 0 mm 1 mps 758 mmHg 75%
    14:00 +1°C° 0 mm 1 mps 758 mmHg 77%
    15:00 +1°C° 0 mm 1 mps 758 mmHg 79%
    16:00 0°C° 0 mm 1 mps 758 mmHg 81%
    17:00 -1°C° 0 mm 1 mps 757 mmHg 83%
    18:00 -2°C° 0 mm 1 mps 757 mmHg 85%
    19:00 -2°C° 0 mm 1 mps 757 mmHg 86%
    20:00 -2°C° 0 mm 1 mps 757 mmHg 87%
    21:00 -2°C° 0 mm 1 mps 757 mmHg 88%
    22:00 -2°C° 0 mm 1 mps 757 mmHg 89%
    23:00 -2°C° 0 mm 1 mps 757 mmHg 90%

    Tomorrow, 19 November, Monday

    Time Temperature Precipitation Wind Pressure Humidity
    00:00 -1°C° 0 mm 1 mps 757 mmHg 91%
    01:00 -1°C° 0 mm 1 mps 757 mmHg 91%
    02:00 -3°C° 0 mm 2 mps 757 mmHg 92%
    03:00 -3°C° 0 mm 2 mps 757 mmHg 93%
    04:00 -3°C° 0 mm 2 mps 757 mmHg 93%
    05:00 -3°C° 0 mm 2 mps 757 mmHg 94%
    06:00 -3°C° 0 mm 2 mps 757 mmHg 94%
    07:00 -3°C° 0 mm 2 mps 757 mmHg 94%
    08:00 -2°C° 0 mm 3 mps 757 mmHg 94%
    09:00 -2°C° 0 mm 3 mps 757 mmHg 94%
    10:00 -1°C° 0 mm 3 mps 757 mmHg 95%
    11:00 -1°C° 0 mm 3 mps 757 mmHg 95%
    12:00 -1°C° 0 mm 4 mps 757 mmHg 96%
    13:00 -1°C° 0 mm 4 mps 756 mmHg 96%
    14:00 -1°C° 0 mm 4 mps 756 mmHg 96%
    15:00 -1°C° 0 mm 4 mps 756 mmHg 96%
    16:00 -1°C° 0 mm 4 mps 756 mmHg 96%
    17:00 -1°C° 0 mm 4 mps 756 mmHg 96%
    18:00 -1°C° 0 mm 4 mps 755 mmHg 96%
    19:00 -1°C° 0.1 mm 5 mps 755 mmHg 95%
    20:00 -1°C° 0.1 mm 5 mps 755 mmHg 95%
    21:00 0°C° 0.1 mm 5 mps 755 mmHg 94%
    22:00 0°C° 0.4 mm 5 mps 755 mmHg 95%
    23:00 0°C° 0.4 mm 5 mps 754 mmHg 95%

    Day after tomorrow, 20 November, Tuesday

    Time Temperature Precipitation Wind Pressure Humidity
    00:00 0°C° 0.4 mm 5 mps 754 mmHg 96%
    01:00 -1°C° 0.3 mm 6 mps 754 mmHg 96%
    02:00 -1°C° 0.3 mm 6 mps 754 mmHg 96%
    03:00 -1°C° 0.3 mm 6 mps 753 mmHg 96%
    04:00 -1°C° 1.1 mm 6 mps 753 mmHg 96%
    05:00 -1°C° 1.1 mm 6 mps 752 mmHg 96%
    06:00 -1°C° 1.1 mm 6 mps 752 mmHg 95%
    07:00 -1°C° 0.7 mm 6 mps 752 mmHg 95%
    08:00 -1°C° 0.7 mm 7 mps 752 mmHg 95%
    09:00 -1°C° 0.7 mm 7 mps 752 mmHg 95%
    10:00 -1°C° 0.3 mm 6 mps 751 mmHg 96%
    11:00 +1°C° 0.3 mm 6 mps 751 mmHg 96%
    12:00 +1°C° 0.3 mm 5 mps 751 mmHg 97%
    13:00 +1°C° 0.4 mm 5 mps 751 mmHg 97%
    14:00 +1°C° 0.4 mm 4 mps 750 mmHg 96%
    15:00 +3°C° 0.4 mm 3 mps 750 mmHg 96%
    16:00 +3°C° 0.8 mm 3 mps 750 mmHg 96%
    17:00 +3°C° 0.8 mm 3 mps 750 mmHg 97%
    18:00 +2°C° 0.8 mm 3 mps 750 mmHg 97%
    19:00 +2°C° 0.2 mm 3 mps 751 mmHg 97%
    20:00 +1°C° 0.2 mm 4 mps 751 mmHg 96%
    21:00 +1°C° 0.2 mm 4 mps 751 mmHg 96%
    22:00 +1°C° 0 mm 4 mps 751 mmHg 96%
    23:00 0°C° 0 mm 4 mps 751 mmHg 95%

    21 November, Wednesday

    Time Temperature Precipitation Wind Pressure Humidity
    00:00 0°C° 0 mm 4 mps 752 mmHg 95%
    01:00 0°C° 0 mm 4 mps 752 mmHg 95%
    02:00 0°C° 0 mm 4 mps 752 mmHg 94%
    03:00 +1°C° 0 mm 3 mps 753 mmHg 93%
    04:00 0°C° 0 mm 3 mps 753 mmHg 93%
    05:00 0°C° 0 mm 3 mps 753 mmHg 93%
    06:00 0°C° 0 mm 3 mps 753 mmHg 93%
    07:00 0°C° 0 mm 3 mps 753 mmHg 93%
    08:00 0°C° 0 mm 3 mps 754 mmHg 92%
    09:00 0°C° 0 mm 3 mps 754 mmHg 91%
    10:00 0°C° 0 mm 3 mps 754 mmHg 90%
    11:00 +1°C° 0 mm 3 mps 754 mmHg 89%
    12:00 +1°C° 0 mm 3 mps 754 mmHg 88%
    13:00 +1°C° 0 mm 3 mps 754 mmHg 88%
    14:00 +1°C° 0 mm 3 mps 754 mmHg 88%
    15:00 +1°C° 0 mm 3 mps 754 mmHg 88%
    16:00 0°C° 0 mm 4 mps 754 mmHg 88%
    17:00 -1°C° 0 mm 4 mps 754 mmHg 88%
    18:00 -1°C° 0 mm 4 mps 754 mmHg 88%
    19:00 -1°C° 0 mm 4 mps 754 mmHg 87%
    20:00 -1°C° 0 mm 4 mps 754 mmHg 86%
    21:00 -1°C° 0 mm 4 mps 754 mmHg 85%
    22:00 -1°C° 0 mm 4 mps 754 mmHg 84%
    23:00 -1°C° 0 mm 4 mps 754 mmHg 83%

    22 November, Thursday

    Time Temperature Precipitation Wind Pressure Humidity
    00:00 -1°C° 0 mm 4 mps 754 mmHg 82%
    01:00 -2°C° 0 mm 4 mps 754 mmHg 82%
    02:00 -2°C° 0 mm 4 mps 754 mmHg 81%
    03:00 -2°C° 0 mm 4 mps 754 mmHg 80%
    04:00 -3°C° 0 mm 4 mps 754 mmHg 80%
    05:00 -3°C° 0 mm 4 mps 754 mmHg 81%
    06:00 -4°C° 0 mm 4 mps 754 mmHg 81%
    07:00 -4°C° 0 mm 4 mps 754 mmHg 80%
    08:00 -4°C° 0 mm 4 mps 754 mmHg 80%
    09:00 -5°C° 0 mm 5 mps 755 mmHg 80%
    10:00 -4°C° 0 mm 5 mps 755 mmHg 77%
    11:00 -2°C° 0 mm 4 mps 755 mmHg 75%
    12:00 -2°C° 0 mm 4 mps 755 mmHg 72%
    13:00 -2°C° 0 mm 4 mps 755 mmHg 73%
    14:00 -2°C° 0 mm 4 mps 755 mmHg 73%
    15:00 -2°C° 0 mm 4 mps 755 mmHg 73%
    16:00 -2°C° 0 mm 4 mps 755 mmHg 76%
    17:00 -3°C° 0 mm 4 mps 755 mmHg 80%
    18:00 -4°C° 0 mm 4 mps 755 mmHg 83%
    19:00 -4°C° 0 mm 4 mps 755 mmHg 83%
    20:00 -5°C° 0 mm 4 mps 756 mmHg 84%
    21:00 -5°C° 0 mm 4 mps 756 mmHg 84%
    22:00 -5°C° 0 mm 3 mps 756 mmHg 83%
    23:00 -5°C° 0 mm 3 mps 756 mmHg 83%

    23 November, Friday

    Time Temperature Precipitation Wind Pressure Humidity
    00:00 -5°C° 0 mm 3 mps 756 mmHg 82%
    01:00 -5°C° 0 mm 3 mps 756 mmHg 82%
    02:00 -5°C° 0 mm 3 mps 756 mmHg 81%
    03:00 -5°C° 0 mm 3 mps 756 mmHg 80%
    04:00 -5°C° 0 mm 3 mps 757 mmHg 80%
    05:00 -6°C° 0 mm 3 mps 757 mmHg 79%
    06:00 -6°C° 0 mm 3 mps 757 mmHg 79%
    07:00 -5°C° 0 mm 3 mps 757 mmHg 79%
    08:00 -5°C° 0 mm 3 mps 758 mmHg 79%
    09:00 -5°C° 0 mm 3 mps 758 mmHg 78%
    10:00 -4°C° 0 mm 3 mps 758 mmHg 76%
    11:00 -2°C° 0 mm 3 mps 759 mmHg 74%
    12:00 -1°C° 0 mm 3 mps 759 mmHg 71%
    13:00 -1°C° 0 mm 3 mps 759 mmHg 72%
    14:00 -1°C° 0 mm 3 mps 759 mmHg 73%
    15:00 -1°C° 0 mm 3 mps 759 mmHg 74%
    16:00 -2°C° 0 mm 3 mps 759 mmHg 78%
    17:00 -4°C° 0 mm 3 mps 759 mmHg 83%
    18:00 -3°C° 0 mm 2 mps 759 mmHg 87%
    19:00 -4°C° 0 mm 2 mps 760 mmHg 87%
    20:00 -4°C° 0 mm 2 mps 760 mmHg 88%
    21:00 -4°C° 0 mm 2 mps 760 mmHg 88%
    22:00 -4°C° 0 mm 2 mps 760 mmHg 88%
    23:00 -4°C° 0 mm 2 mps 760 mmHg 88%
    Show more